Cloud_Cover
42 25 100 14 6 5 5 11 5 41 100 100 16 20 16 5 8 5 0 0 1 0 0 0 0 0 0 32 94 5 0 5 5
100 55 83 2 5 15 70 55 17 17 92 100 100 76 1 3 0 0 0 0 6 4 0 48 0 0 0 11 29 3 0 2 6
100 100 14 5 5 31 81 22 20 90 100 100 100 100 37 0 0 0 0 0 2 0 17 1 0 0 2 9 5 2 2 4 27
100 100 27 5 6 86 97 100 99 56 100 100 100 100 77 0 0 0 0 2 2 1 4 0 1 0 0 0 4 2 2 3 10
89 100 100 5 98 6 43 48 100 18 100 100 100 100 100 0 0 0 6 7 0 4 0 0 1 0 0 2 0 0 0 3 2
87 58 100 66 89 31 5 9 100 37 76 100 100 100 84 72 100 100 15 0 0 0 0 0 0 0 0 0 0 0 1 3 0
98 53 13 100 98 80 5 5 37 27 6 8 100 100 100 100 94 100 68 6 2 0 0 0 0 0 0 99 89 100 100 6 5
100 100 28 82 100 94 5 8 1 5 5 19 61 100 59 100 98 89 7 0 13 21 0 0 0 0 15 98 94 100 61 5 0
89 100 96 5 84 100 100 100 14 4 4 5 26 72 100 100 90 76 24 5 5 0 35 15 0 5 5 100 100 100 7 5 3
0 97 100 96 38 58 98 91 100 10 5 11 5 100 90 94 100 79 100 62 5 4 2 26 38 25 94 38 100 100 100 95 5
0 1 22 95 95 17 4 3 8 71 8 16 19 19 56 100 95 99 100 60 13 8 14 11 14 30 32 22 6 99 100 100 78
5 0 2 0 0 3 23 4 6 12 34 26 21 4 2 100 100 100 100 98 73 88 55 40 21 53 90 5 5 45 100 97 9
6 4 0 0 0 0 0 1 2 0 0 0 0 0 0 34 93 100 100 100 100 100 94 96 100 97 57 26 8 83 100 100 100
5 5 0 2 3 0 0 9 0 0 0 0 7 45 42 26 8 68 100 100 100 100 100 99 100 79 38 31 99 100 100 100 100
20 9 33 4 4 0 4 13 0 0 0 7 23 47 13 5 14 18 32 100 97 100 100 98 61 100 100 100 100 100 100 100 100
6 90 100 70 5 1 12 1 0 0 3 18 54 26 19 25 78 71 17 92 100 43 72 100 89 99 100 100 100 100 100 100 100
99 90 90 3 2 5 7 5 0 0 6 0 9 13 21 18 5 25 17 84 100 100 100 100 100 100 100 93 100 98 100 100 100
100 64 84 78 39 65 20 7 0 0 0 0 0 4 47 47 96 100 100 100 100 100 100 100 100 100 100 100 100 100 100 100 100
88 60 100 100 62 99 24 5 5 3 2 0 3 58 100 89 100 100 100 100 100 100 100 100 100 100 100 100 100 100 100 100 100
100 99 100 100 100 100 91 5 87 39 5 1 0 6 86 91 100 100 100 71 100 100 100 100 100 100 100 100 100 100 100 100 100